Stündliche Wetter Wartoslaw

Heute, 28 Oktober, Mittwoch

Zeit Temperatur Niederschläge Wind Luftdruck Luftfeuchtigkeit
00:00 +8°C° 0 mm 3 m/S 754 mmHg 78%
01:00 +7°C° 0 mm 4 m/S 754 mmHg 78%
02:00 +7°C° 0 mm 4 m/S 754 mmHg 78%
03:00 +7°C° 0 mm 4 m/S 754 mmHg 79%
04:00 +7°C° 0 mm 4 m/S 753 mmHg 79%
05:00 +7°C° 0 mm 4 m/S 753 mmHg 77%
06:00 +7°C° 0 mm 5 m/S 754 mmHg 76%
07:00 +7°C° 0 mm 5 m/S 754 mmHg 74%
08:00 +8°C° 0 mm 5 m/S 754 mmHg 71%
09:00 +8°C° 0 mm 5 m/S 754 mmHg 67%
10:00 +9°C° 0 mm 5 m/S 754 mmHg 64%
11:00 +9°C° 0.1 mm 5 m/S 754 mmHg 69%
12:00 +10°C° 0.1 mm 4 m/S 754 mmHg 74%
13:00 +10°C° 0.1 mm 4 m/S 754 mmHg 78%
14:00 +10°C° 0 mm 4 m/S 754 mmHg 78%
15:00 +10°C° 0 mm 3 m/S 754 mmHg 78%
16:00 +10°C° 0 mm 3 m/S 754 mmHg 78%
17:00 +10°C° 0 mm 3 m/S 754 mmHg 79%
18:00 +10°C° 0 mm 4 m/S 754 mmHg 80%
19:00 +8°C° 0 mm 4 m/S 754 mmHg 81%
20:00 +8°C° 0 mm 4 m/S 754 mmHg 84%
21:00 +8°C° 0 mm 4 m/S 754 mmHg 87%
22:00 +9°C° 0 mm 3 m/S 755 mmHg 90%
23:00 +8°C° 0 mm 4 m/S 755 mmHg 89%

Morgen, 29 Oktober, Donnerstag

Zeit Temperatur Niederschläge Wind Luftdruck Luftfeuchtigkeit
00:00 +8°C° 0 mm 4 m/S 755 mmHg 89%
01:00 +8°C° 0 mm 4 m/S 755 mmHg 88%
02:00 +8°C° 0 mm 4 m/S 754 mmHg 86%
03:00 +8°C° 0 mm 4 m/S 754 mmHg 84%
04:00 +8°C° 0 mm 4 m/S 754 mmHg 81%
05:00 +8°C° 0.1 mm 4 m/S 754 mmHg 83%
06:00 +8°C° 0.1 mm 4 m/S 753 mmHg 85%
07:00 +8°C° 0.1 mm 5 m/S 753 mmHg 86%
08:00 +9°C° 0.1 mm 5 m/S 753 mmHg 83%
09:00 +10°C° 0.1 mm 5 m/S 753 mmHg 80%
10:00 +11°C° 0.1 mm 6 m/S 753 mmHg 77%
11:00 +12°C° 0.2 mm 5 m/S 754 mmHg 74%
12:00 +12°C° 0.2 mm 5 m/S 754 mmHg 72%
13:00 +10°C° 0.2 mm 5 m/S 754 mmHg 69%
14:00 +10°C° 0.1 mm 5 m/S 754 mmHg 70%
15:00 +11°C° 0.1 mm 4 m/S 755 mmHg 71%
16:00 +10°C° 0.1 mm 4 m/S 755 mmHg 72%
17:00 +8°C° 0 mm 4 m/S 756 mmHg 74%
18:00 +8°C° 0 mm 4 m/S 756 mmHg 77%
19:00 +7°C° 0 mm 4 m/S 757 mmHg 79%
20:00 +7°C° 0 mm 4 m/S 757 mmHg 79%
21:00 +7°C° 0 mm 4 m/S 758 mmHg 80%
22:00 +6°C° 0 mm 4 m/S 758 mmHg 81%
23:00 +6°C° 0 mm 4 m/S 758 mmHg 84%

übermorgen, 30 Oktober, Freitag

Zeit Temperatur Niederschläge Wind Luftdruck Luftfeuchtigkeit
00:00 +6°C° 0 mm 4 m/S 759 mmHg 87%
01:00 +5°C° 0 mm 3 m/S 759 mmHg 90%
02:00 +5°C° 0 mm 3 m/S 759 mmHg 90%
03:00 +5°C° 0 mm 3 m/S 759 mmHg 90%
04:00 +5°C° 0 mm 3 m/S 759 mmHg 89%
05:00 +5°C° 0 mm 3 m/S 759 mmHg 88%
06:00 +5°C° 0 mm 3 m/S 758 mmHg 87%
07:00 +5°C° 0 mm 3 m/S 758 mmHg 86%
08:00 +6°C° 0.8 mm 4 m/S 757 mmHg 88%
09:00 +6°C° 0.8 mm 4 m/S 757 mmHg 91%
10:00 +7°C° 0.8 mm 4 m/S 757 mmHg 93%
11:00 +7°C° 1.6 mm 4 m/S 757 mmHg 94%
12:00 +7°C° 1.6 mm 4 m/S 756 mmHg 95%
13:00 +9°C° 1.6 mm 3 m/S 756 mmHg 97%
14:00 +10°C° 0.8 mm 4 m/S 756 mmHg 96%
15:00 +10°C° 0.8 mm 4 m/S 756 mmHg 95%
16:00 +11°C° 0.8 mm 4 m/S 756 mmHg 95%
17:00 +11°C° 0.7 mm 4 m/S 756 mmHg 95%
18:00 +11°C° 0.7 mm 4 m/S 757 mmHg 95%
19:00 +12°C° 0.7 mm 4 m/S 757 mmHg 96%
20:00 +11°C° 0.2 mm 3 m/S 758 mmHg 96%
21:00 +11°C° 0.2 mm 3 m/S 758 mmHg 96%
22:00 +12°C° 0.2 mm 2 m/S 759 mmHg 96%
23:00 +10°C° 0.2 mm 2 m/S 759 mmHg 96%

31 Oktober, Samstag

Zeit Temperatur Niederschläge Wind Luftdruck Luftfeuchtigkeit
00:00 +11°C° 0.2 mm 1 m/S 760 mmHg 95%
01:00 +11°C° 0.2 mm 1 m/S 760 mmHg 95%
02:00 +10°C° 0 mm 1 m/S 761 mmHg 95%
03:00 +10°C° 0 mm 1 m/S 761 mmHg 94%
04:00 +10°C° 0 mm 1 m/S 762 mmHg 94%
05:00 +10°C° 0 mm 1 m/S 762 mmHg 93%
06:00 +9°C° 0 mm 2 m/S 762 mmHg 93%
07:00 +9°C° 0 mm 2 m/S 762 mmHg 93%
08:00 +10°C° 0 mm 2 m/S 762 mmHg 92%
09:00 +10°C° 0 mm 2 m/S 763 mmHg 91%
10:00 +10°C° 0 mm 2 m/S 763 mmHg 90%
11:00 +12°C° 0 mm 2 m/S 763 mmHg 90%
12:00 +12°C° 0 mm 2 m/S 763 mmHg 89%
13:00 +13°C° 0 mm 2 m/S 763 mmHg 89%
14:00 +13°C° 0 mm 2 m/S 763 mmHg 90%
15:00 +13°C° 0 mm 2 m/S 763 mmHg 91%
16:00 +13°C° 0 mm 2 m/S 762 mmHg 91%
17:00 +11°C° 0 mm 3 m/S 762 mmHg 93%
18:00 +11°C° 0 mm 3 m/S 763 mmHg 94%
19:00 +11°C° 0 mm 3 m/S 763 mmHg 95%
20:00 +10°C° 0 mm 3 m/S 762 mmHg 95%
21:00 +10°C° 0 mm 3 m/S 762 mmHg 94%
22:00 +10°C° 0 mm 3 m/S 762 mmHg 94%
23:00 +10°C° 0 mm 4 m/S 762 mmHg 92%

1 November, Sonntag

Zeit Temperatur Niederschläge Wind Luftdruck Luftfeuchtigkeit
00:00 +8°C° 0 mm 4 m/S 762 mmHg 91%
01:00 +8°C° 0 mm 4 m/S 762 mmHg 89%
02:00 +8°C° 0 mm 4 m/S 761 mmHg 88%
03:00 +8°C° 0 mm 4 m/S 761 mmHg 86%
04:00 +7°C° 0 mm 4 m/S 761 mmHg 84%
05:00 +7°C° 0 mm 4 m/S 761 mmHg 85%
06:00 +7°C° 0 mm 4 m/S 760 mmHg 86%
07:00 +7°C° 0 mm 4 m/S 760 mmHg 86%
08:00 +8°C° 0 mm 4 m/S 760 mmHg 85%
09:00 +10°C° 0 mm 4 m/S 760 mmHg 83%
10:00 +12°C° 0 mm 4 m/S 760 mmHg 82%
11:00 +13°C° 0 mm 4 m/S 759 mmHg 79%
12:00 +14°C° 0 mm 4 m/S 759 mmHg 76%
13:00 +15°C° 0 mm 4 m/S 759 mmHg 74%
14:00 +15°C° 0 mm 4 m/S 759 mmHg 76%
15:00 +14°C° 0 mm 4 m/S 759 mmHg 78%
16:00 +14°C° 0 mm 4 m/S 758 mmHg 81%
17:00 +13°C° 0 mm 4 m/S 758 mmHg 83%
18:00 +13°C° 0 mm 4 m/S 759 mmHg 85%
19:00 +12°C° 0 mm 3 m/S 759 mmHg 87%
20:00 +12°C° 0 mm 4 m/S 759 mmHg 87%
21:00 +12°C° 0 mm 4 m/S 758 mmHg 88%
22:00 +12°C° 0 mm 4 m/S 758 mmHg 88%
23:00 +12°C° 0 mm 4 m/S 758 mmHg 87%

2 November, Montag

Zeit Temperatur Niederschläge Wind Luftdruck Luftfeuchtigkeit
00:00 +12°C° 0 mm 4 m/S 758 mmHg 86%
01:00 +12°C° 0 mm 4 m/S 758 mmHg 84%
02:00 +12°C° 0 mm 4 m/S 758 mmHg 84%
03:00 +12°C° 0 mm 4 m/S 757 mmHg 84%
04:00 +12°C° 0 mm 4 m/S 757 mmHg 84%
05:00 +12°C° 0 mm 4 m/S 757 mmHg 82%
06:00 +12°C° 0 mm 4 m/S 758 mmHg 81%
07:00 +12°C° 0 mm 4 m/S 758 mmHg 79%
08:00 +13°C° 0 mm 4 m/S 758 mmHg 77%
09:00 +13°C° 0 mm 4 m/S 758 mmHg 75%
10:00 +14°C° 0 mm 4 m/S 758 mmHg 74%
11:00 +14°C° 0 mm 4 m/S 758 mmHg 73%
12:00 +14°C° 0 mm 4 m/S 758 mmHg 72%
13:00 +15°C° 0 mm 4 m/S 759 mmHg 72%
14:00 +14°C° 0 mm 3 m/S 758 mmHg 73%
15:00 +14°C° 0 mm 3 m/S 758 mmHg 74%
16:00 +14°C° 0 mm 3 m/S 758 mmHg 76%
17:00 +13°C° 0 mm 3 m/S 759 mmHg 78%
18:00 +13°C° 0 mm 3 m/S 759 mmHg 80%
19:00 +12°C° 0 mm 3 m/S 759 mmHg 82%
20:00 +13°C° 0 mm 2 m/S 759 mmHg 82%
21:00 +13°C° 0 mm 2 m/S 760 mmHg 82%
22:00 +13°C° 0 mm 2 m/S 760 mmHg 82%
23:00 +13°C° 0 mm 2 m/S 760 mmHg 80%
Mehr zeigen

Wir brauchen deine Erlaubnis

Meteoprog und unser Service Anbieter werden persönliche Daten aufbewahren, so wie Cookies, Geräte Bezeichnung oder ähnliche Technologien von deinem Gerät und Prozess, so wie Persönliche Daten Inhalte und Werbungen, genauso wie social Media und den Verkehr zu analysieren.

  • Aufbewahrung und/oder Zugang zu deiner Geräte Informationen.

    Cookies, Geräte Bezeichnung oder andere Informationen, können aufbewahrt oder Zugang zu deinem Gerät erhalten, für den Grund, der oben angegeben wird.

  • Personalisierte Werbung und Inhalte, Messungen, Einblick in das Publikum und Produkt Entwicklung.

    Werbungen und Inhalte können personalisiert werden, basierend auf ein Profil. Mehr Daten können besser personalisierte Werbungen und Inhalte hinzufügen. Werbung und Inhalte können gezeigt und gemessen werden. Einblicke über das Publikum, welche die Werbung gesehen haben und den Inhalt, können abgeleitet werden. So wie Daten können genutzt werden, um es zu verbessern oder die Benutzer Erfahrung zu verbessern das System und die Software.

Wenn du “Ich stimme zu” klickst, erlaubst du uns, die Cookies zu benutzen die Geräte Bezeichnung, den Web oder ähnliche Technologien zu benutzen. Deine Settings, können in deinem Gerät bei deinem Browser geändert werden.

Für den bestimmten Zweck, berechtigten Interessen beruhen darauf, mehr als auf den Inhalt. Du kannst mehr darüber in unseren Privaten und Cookie Politik lesen.